Wind_Speed
12 13 13 13 16 15 11 9 8 7 7 6 5 4 4 3 2 1 1 1 2 2 3 4 5 5 5 5 4 4 4 4 5 5 5 5 5 5 5 5 5 5 5 5 5 5 5 5 5
12 12 12 14 16 14 9 8 8 8 8 6 5 5 5 4 3 2 2 1 2 2 3 4 4 5 5 5 5 4 4 4 5 5 5 5 5 5 5 5 5 4 4 5 5 5 5 5 4
12 11 14 16 15 11 8 8 7 8 8 6 6 7 5 4 4 3 2 1 2 2 3 3 4 4 5 5 5 5 5 4 5 4 5 4 4 4 4 4 4 4 4 4 4 4 4 4 4
11 12 15 15 12 9 8 8 8 7 8 7 7 7 5 5 4 3 2 1 1 1 2 3 3 4 4 5 5 5 5 5 5 5 5 4 4 4 3 3 3 3 4 4 4 4 4 4 4
10 11 12 13 9 6 7 7 7 8 7 8 8 7 7 6 5 3 2 1 1 1 1 2 3 4 4 5 5 5 5 5 5 5 5 5 4 4 3 3 3 3 3 4 3 4 4 4 3
7 9 12 11 6 4 7 7 7 8 8 8 9 8 7 7 5 4 2 1 1 1 1 1 2 4 5 5 5 6 6 6 6 6 5 5 4 4 3 2 2 2 2 2 3 3 3 4 3
5 9 9 7 3 4 7 8 6 9 10 10 10 8 7 6 6 4 3 1 1 1 1 1 2 3 4 5 6 6 6 6 6 5 5 5 4 4 3 2 2 2 2 2 3 3 3 3 3
6 8 8 5 2 4 6 7 6 7 7 8 9 9 9 7 6 5 3 2 1 2 1 2 2 3 4 5 6 6 6 6 6 5 5 5 4 4 3 2 2 1 2 1 2 2 2 2 3
8 9 7 4 2 5 6 6 7 7 7 6 8 10 10 8 6 5 4 4 2 2 2 2 2 3 4 5 7 7 7 7 7 6 5 5 5 4 3 3 2 1 1 1 2 2 2 2 2
6 8 5 0 2 5 7 6 7 8 9 7 7 10 9 8 6 5 5 5 3 3 3 3 4 4 4 5 7 8 8 8 8 7 7 6 5 5 4 3 2 1 1 1 1 2 2 2 2
4 3 1 5 7 7 5 6 7 8 11 10 9 9 8 8 6 5 6 5 5 5 5 5 5 5 5 6 7 8 9 9 9 8 7 7 6 5 4 4 3 2 1 0 1 2 2 2 2
2 2 5 5 6 6 5 6 7 8 9 11 10 10 9 8 7 5 5 6 7 6 6 6 6 6 6 6 7 8 9 9 9 8 8 7 6 6 5 4 3 3 2 1 1 1 1 1 1
3 3 4 6 5 5 6 6 8 8 9 11 11 10 9 8 7 7 7 7 8 8 7 7 7 7 7 8 8 8 9 10 10 9 9 8 7 7 6 5 4 3 2 2 2 1 1 1 1
4 4 4 5 6 7 6 6 8 8 10 12 11 10 10 8 7 7 8 8 9 10 9 9 8 8 9 10 10 9 10 10 10 10 10 9 9 8 6 5 5 4 3 3 2 2 1 1 1
6 5 4 4 6 7 6 7 9 9 9 12 12 11 10 9 9 8 9 9 10 11 10 10 9 10 10 10 10 9 10 10 11 11 11 10 9 9 8 7 6 5 4 4 3 3 2 2 2
6 5 5 6 7 8 8 9 11 7 9 12 12 12 11 9 10 9 9 10 11 12 11 10 10 11 11 11 11 10 10 11 11 10 10 11 10 10 9 8 7 6 5 5 4 3 3 3 2
4 4 6 8 10 9 9 10 11 7 9 13 13 12 11 11 10 10 10 10 11 12 12 11 11 12 12 12 11 10 10 11 11 11 11 11 11 10 9 10 9 7 7 6 6 5 4 3 3
4 6 8 10 12 11 10 10 11 8 11 14 14 13 12 12 10 10 11 12 12 13 12 12 12 12 12 11 10 10 10 10 10 11 11 11 11 10 10 10 10 9 8 8 7 6 5 5 4
9 9 11 11 13 13 11 10 12 11 13 14 14 14 13 13 12 12 13 13 13 13 13 13 13 12 12 11 10 10 10 11 10 11 11 11 11 11 11 11 11 10 10 9 8 8 7 6 5
12 11 10 12 14 14 12 12 13 14 14 14 15 14 13 14 14 14 14 14 14 14 14 14 13 12 11 10 10 9 9 10 10 10 11 11 11 12 12 11 12 11 10 10 10 9 8 8 7
13 12 11 12 14 14 11 11 12 15 15 15 15 14 14 14 14 13 14 14 14 13 13 13 13 12 11 10 10 9 9 9 9 10 12 12 12 12 12 12 12 12 11 11 11 10 10 10 9
15 14 14 14 14 13 11 12 14 14 14 15 15 15 14 14 15 13 13 14 13 12 12 12 13 12 12 11 10 9 9 10 10 11 13 13 13 13 13 13 12 13 12 12 12 12 12 11 11
16 15 15 15 14 13 12 12 15 16 16 14 14 15 15 15 15 14 13 12 12 12 12 12 12 12 11 11 10 9 9 9 10 11 13 14 14 14 14 14 14 13 13 13 13 13 13 12 12
17 16 15 14 13 15 13 13 16 18 18 16 16 16 16 15 16 15 12 12 12 12 12 12 12 12 11 11 11 10 10 10 11 12 13 14 14 15 15 15 15 14 14 15 14 14 14 14 13
18 16 13 12 12 12 12 13 17 19 18 17 17 16 15 15 15 14 13 12 12 12 12 12 11 11 11 11 10 9 10 10 11 12 13 14 15 15 16 16 16 16 16 16 15 15 15 14 14
18 16 15 11 11 12 13 15 17 20 18 17 17 17 16 15 14 14 13 13 12 12 12 12 12 11 11 11 11 10 10 10 10 11 12 13 15 16 17 17 17 17 17 17 17 17 17 16 16
19 18 15 15 13 13 14 13 18 20 19 18 19 18 16 16 15 15 14 13 13 13 12 12 12 12 12 12 11 10 10 10 10 11 11 13 15 16 17 17 18 18 19 19 19 18 18 18 18
21 19 18 19 18 16 15 17 19 18 18 18 17 17 17 16 15 15 15 14 14 13 13 13 13 13 13 12 11 11 10 10 11 12 13 14 16 17 18 18 19 19 19 19 19 19 19 20 20
22 22 21 20 19 17 17 19 20 20 19 17 18 17 16 17 15 15 14 14 14 14 15 14 13 13 13 12 12 13 12 11 11 12 14 15 16 18 19 20 20 20 19 21 21 21 21 21 21
21 22 22 23 22 20 19 22 22 19 17 18 18 17 17 16 15 15 13 14 15 15 15 15 14 14 14 13 13 13 13 12 12 13 14 15 16 18 19 20 20 19 19 21 21 22 22 22 23
Wind_Direction
83 82 80 78 70 63 48 24 16 16 16 20 15 352 352 343 323 297 282 240 198 190 187 187 186 180 173 173 180 184 179 171 164 155 148 148 140 133 127 121 117 115 114 109 103 99 97 95 90
89 88 82 70 69 58 39 12 11 15 14 17 10 360 357 339 330 303 295 266 224 207 198 196 196 194 193 189 194 195 193 190 179 164 157 157 150 141 134 127 121 118 114 110 106 103 99 97 93
97 96 78 65 57 40 17 8 15 19 14 9 3 359 358 352 338 317 308 264 223 211 207 201 208 208 202 201 204 207 201 195 191 181 173 167 156 145 137 130 123 119 114 111 108 105 99 95 90
104 101 84 74 63 31 3 10 11 14 12 4 2 1 359 353 344 338 324 278 237 201 195 209 219 216 220 213 214 214 209 207 206 200 189 180 168 154 147 138 125 120 114 111 108 105 100 91 84
111 102 90 89 73 20 350 359 2 7 357 353 357 1 357 354 351 347 343 315 212 184 184 209 227 238 233 221 224 224 225 223 221 214 204 192 179 167 155 141 125 121 112 111 110 108 101 92 88
103 83 73 82 81 353 338 348 354 354 343 344 348 352 353 354 349 346 346 341 236 241 230 217 241 250 234 228 230 235 238 236 233 224 219 203 192 183 174 153 125 114 109 106 109 110 106 102 96
91 75 76 67 42 336 335 337 342 336 342 344 341 339 351 355 346 341 341 348 311 283 270 260 248 245 234 238 243 242 236 236 235 231 222 213 205 196 186 171 139 116 105 105 108 113 113 106 96
100 98 98 87 339 315 321 327 332 326 335 338 328 335 351 356 349 338 335 320 290 290 290 269 257 255 249 249 249 242 238 237 237 234 233 227 218 209 200 188 169 124 100 103 115 124 124 105 97
111 102 87 83 304 299 301 316 324 322 319 324 326 339 350 353 348 339 332 317 309 314 301 284 269 266 259 255 252 245 240 239 241 239 241 234 231 225 220 211 191 143 101 89 116 124 131 111 101
113 90 73 97 257 288 294 311 312 311 302 312 344 342 354 356 346 340 339 334 342 327 311 298 285 277 271 262 255 249 241 239 241 242 242 237 239 238 232 219 205 174 131 92 105 117 120 110 107
128 100 165 233 239 255 288 301 308 307 305 318 339 341 348 353 345 337 345 350 340 331 321 311 301 282 269 265 262 259 250 245 245 249 245 244 244 250 242 230 217 213 199 149 131 133 129 119 121
174 220 240 247 246 249 261 277 286 288 302 318 323 334 343 345 344 339 345 352 346 336 329 315 300 290 279 278 270 262 256 251 251 250 245 248 248 249 243 239 233 228 225 222 199 170 162 146 127
238 250 256 260 263 258 254 260 269 291 307 311 317 325 333 332 331 341 343 348 345 335 328 324 312 293 287 283 278 266 257 254 251 246 246 247 250 250 244 246 246 233 237 248 245 220 191 169 155
250 258 264 266 264 262 256 267 275 287 301 305 307 312 323 322 320 332 335 341 340 338 331 323 311 301 292 286 280 271 261 255 247 243 247 249 249 248 243 244 251 248 247 250 245 239 210 187 174
248 266 269 271 270 266 260 255 264 272 292 299 301 302 308 315 322 324 328 334 336 334 328 321 313 311 302 293 285 271 262 251 247 243 247 246 244 243 244 246 245 250 254 251 246 238 219 206 191
253 268 280 270 271 270 261 262 269 273 288 294 295 301 306 311 316 318 323 328 330 330 327 320 312 311 304 297 287 273 264 252 247 244 246 243 241 243 244 243 243 246 250 250 246 240 227 219 210
260 286 281 263 267 268 267 272 272 277 286 292 293 300 306 307 308 312 317 321 322 327 328 322 315 311 305 299 289 277 268 256 246 243 241 239 239 242 242 243 244 247 251 249 245 239 234 227 218
243 267 262 258 268 269 264 268 272 272 284 290 291 296 299 301 305 310 315 316 317 320 323 321 314 312 309 301 294 277 269 260 245 237 233 233 238 241 241 246 248 250 250 250 246 241 238 232 229
226 235 242 247 252 267 267 258 269 274 278 284 288 294 296 298 300 305 311 311 311 312 314 316 313 312 312 303 296 286 269 255 243 234 227 229 238 241 244 246 247 247 249 249 247 243 241 237 237
233 232 237 249 253 268 265 259 255 264 278 281 286 291 294 297 299 303 304 306 308 308 308 310 309 308 305 303 297 287 275 258 249 237 230 231 238 242 248 248 244 244 245 247 246 244 243 241 243
237 235 231 239 254 268 269 266 267 266 274 284 292 295 295 295 297 302 302 304 306 308 306 308 307 306 304 302 298 285 270 257 250 243 240 238 239 239 243 247 244 245 245 246 247 248 246 241 241
240 240 237 239 246 259 263 270 275 276 277 283 288 293 292 294 297 299 301 302 305 306 308 309 304 302 299 296 291 286 275 263 255 247 240 238 237 239 243 244 244 246 244 246 247 248 247 246 243
239 240 244 245 246 245 248 255 270 276 278 279 290 288 289 289 296 296 298 302 303 303 305 307 303 302 300 294 290 284 280 269 258 252 247 241 240 240 242 244 244 244 244 245 247 247 248 248 247
240 242 247 246 244 248 243 243 258 268 271 268 277 282 285 289 294 299 294 301 301 302 303 304 301 299 298 294 290 288 279 271 265 257 251 245 243 241 243 242 242 242 244 245 246 246 246 246 248
239 239 242 248 253 254 246 241 255 266 270 269 277 281 284 285 294 298 299 296 298 301 305 306 303 300 299 297 293 292 287 278 271 262 255 246 242 242 242 241 241 242 243 243 244 244 243 245 248
238 234 229 230 260 269 252 237 250 266 274 279 280 283 283 284 287 290 294 295 298 301 305 305 304 304 304 303 295 292 288 281 271 262 254 249 245 245 242 242 242 244 245 245 244 244 245 247 250
231 232 223 223 239 263 264 249 248 268 278 280 280 281 280 281 284 287 291 291 295 302 306 307 305 304 305 305 302 295 290 285 273 266 257 250 247 245 243 241 243 246 248 247 245 247 248 249 251
225 227 224 221 232 247 255 254 254 262 275 281 279 281 279 277 280 282 287 287 290 298 302 302 303 304 304 300 300 300 293 288 279 267 261 259 253 247 244 240 244 247 247 247 248 249 251 252 252
226 222 223 226 228 237 256 255 251 256 267 278 284 283 281 280 281 282 286 289 292 297 300 300 300 302 302 299 293 292 292 291 285 274 268 264 260 254 248 247 246 248 249 248 248 250 253 254 255
230 226 226 227 227 226 245 266 264 253 261 275 279 278 277 278 278 279 283 289 291 295 300 300 298 300 301 298 292 289 292 290 285 280 273 270 264 256 251 249 247 249 250 249 249 250 252 254 256
Height
5891 5890 5891 5890 5889 5889 5890 5891 5890 5889 5888 5888 5886 5885 5885 5884 5885 5887 5884 5883 5884 5884 5885 5886 5887 5888 5888 5889 5890 5890 5891 5891 5891 5891 5890 5891 5890 5890 5891 5891 5891 5891 5891 5891 5891 5891 5891 5891 5891
5892 5893 5892 5889 5889 5891 5893 5893 5891 5891 5890 5889 5887 5886 5886 5885 5885 5885 5884 5884 5885 5885 5885 5886 5887 5888 5889 5890 5890 5891 5891 5891 5891 5891 5891 5891 5891 5891 5892 5892 5892 5892 5892 5892 5892 5892 5892 5892 5892
5893 5894 5893 5891 5893 5895 5895 5894 5893 5892 5891 5890 5889 5888 5887 5886 5885 5885 5885 5884 5885 5885 5885 5886 5887 5888 5889 5890 5891 5891 5891 5892 5892 5892 5892 5892 5892 5892 5892 5893 5893 5893 5893 5893 5893 5893 5893 5893 5893
5895 5895 5894 5895 5897 5898 5897 5896 5894 5893 5892 5891 5890 5889 5888 5887 5886 5886 5885 5885 5885 5885 5886 5886 5887 5888 5889 5890 5891 5891 5892 5892 5892 5892 5893 5893 5893 5893 5893 5893 5894 5894 5893 5893 5894 5894 5894 5894 5894
5896 5894 5892 5896 5899 5900 5899 5898 5896 5894 5893 5892 5891 5890 5888 5888 5887 5886 5885 5885 5885 5885 5886 5887 5887 5888 5889 5890 5891 5891 5892 5892 5893 5893 5893 5893 5893 5894 5894 5894 5894 5894 5894 5894 5894 5895 5895 5895 5895
5896 5894 5895 5897 5901 5902 5901 5899 5897 5896 5894 5892 5891 5890 5889 5889 5887 5887 5886 5886 5885 5886 5886 5887 5887 5888 5889 5889 5891 5891 5892 5893 5893 5893 5893 5893 5894 5894 5894 5895 5895 5895 5895 5895 5895 5895 5895 5895 5895
5897 5895 5897 5900 5903 5902 5901 5900 5898 5896 5895 5893 5891 5889 5889 5888 5888 5887 5887 5887 5887 5886 5887 5887 5887 5888 5889 5889 5890 5891 5892 5892 5893 5893 5893 5894 5894 5895 5895 5895 5895 5896 5896 5896 5896 5896 5896 5896 5896
5898 5898 5899 5902 5904 5903 5902 5900 5899 5897 5896 5895 5892 5890 5889 5889 5888 5887 5887 5887 5887 5887 5887 5887 5887 5888 5889 5889 5890 5891 5891 5892 5893 5893 5893 5894 5894 5895 5895 5895 5896 5896 5896 5896 5896 5896 5896 5896 5896
5899 5901 5900 5903 5905 5903 5902 5901 5899 5898 5896 5894 5892 5890 5890 5889 5888 5888 5887 5886 5887 5887 5887 5887 5887 5888 5888 5889 5889 5890 5891 5892 5892 5893 5893 5894 5894 5895 5895 5896 5896 5896 5896 5896 5896 5897 5897 5897 5897
5899 5900 5902 5905 5905 5904 5902 5901 5900 5897 5894 5891 5890 5890 5889 5889 5888 5888 5887 5886 5886 5887 5887 5887 5887 5888 5888 5889 5889 5889 5890 5891 5892 5893 5893 5894 5894 5895 5895 5896 5896 5897 5897 5897 5897 5897 5897 5897 5897
5900 5901 5903 5904 5903 5903 5902 5901 5900 5898 5894 5891 5891 5890 5890 5890 5889 5889 5888 5887 5886 5887 5887 5887 5887 5887 5887 5888 5889 5889 5890 5890 5891 5892 5893 5893 5894 5894 5895 5896 5896 5897 5897 5897 5897 5897 5897 5897 5898
5900 5901 5902 5901 5901 5902 5902 5901 5900 5897 5895 5893 5892 5891 5891 5890 5890 5889 5888 5887 5887 5887 5886 5887 5886 5886 5886 5887 5888 5888 5889 5889 5890 5891 5892 5893 5894 5894 5895 5896 5896 5897 5897 5897 5898 5898 5898 5898 5898
5899 5900 5901 5901 5900 5900 5900 5900 5898 5897 5895 5894 5892 5891 5891 5891 5890 5889 5888 5887 5887 5886 5886 5886 5886 5886 5886 5886 5886 5886 5887 5888 5889 5890 5891 5892 5893 5894 5895 5895 5896 5896 5897 5897 5898 5898 5898 5899 5899
5898 5899 5899 5899 5900 5900 5899 5899 5898 5897 5896 5895 5893 5891 5891 5890 5889 5889 5889 5888 5887 5886 5886 5885 5885 5885 5885 5884 5884 5885 5885 5886 5887 5888 5890 5891 5892 5893 5894 5895 5895 5896 5897 5897 5898 5898 5898 5899 5899
5896 5898 5898 5899 5899 5899 5899 5898 5897 5896 5895 5894 5893 5892 5890 5889 5889 5889 5888 5888 5887 5886 5885 5884 5883 5883 5883 5882 5882 5882 5883 5883 5885 5886 5888 5889 5891 5892 5893 5894 5895 5896 5896 5897 5898 5898 5898 5899 5899
5895 5896 5898 5899 5899 5898 5899 5897 5896 5893 5894 5893 5892 5891 5889 5888 5888 5888 5887 5887 5886 5885 5884 5883 5882 5882 5881 5880 5880 5880 5881 5882 5883 5885 5886 5887 5889 5890 5892 5893 5894 5895 5896 5897 5897 5898 5898 5899 5899
5894 5895 5897 5898 5898 5898 5897 5896 5894 5892 5892 5892 5891 5890 5888 5887 5887 5887 5886 5886 5885 5884 5883 5881 5881 5880 5879 5878 5878 5878 5879 5880 5880 5882 5884 5886 5888 5889 5890 5892 5893 5894 5895 5896 5897 5898 5898 5899 5899
5894 5897 5899 5899 5897 5896 5896 5896 5894 5892 5891 5891 5889 5889 5887 5886 5885 5884 5885 5884 5883 5882 5881 5880 5879 5878 5877 5876 5876 5876 5877 5878 5878 5880 5882 5884 5886 5887 5889 5890 5892 5893 5894 5895 5896 5897 5897 5898 5899
5892 5895 5896 5897 5896 5895 5894 5894 5893 5891 5890 5890 5887 5887 5886 5885 5884 5883 5883 5882 5881 5880 5879 5878 5877 5876 5875 5874 5874 5874 5875 5876 5877 5878 5879 5882 5884 5885 5887 5889 5890 5891 5892 5894 5895 5896 5897 5897 5898
5888 5891 5893 5894 5893 5893 5892 5892 5891 5890 5889 5888 5886 5885 5885 5883 5882 5882 5881 5881 5879 5878 5877 5876 5875 5874 5873 5872 5872 5872 5873 5874 5875 5876 5878 5880 5882 5884 5885 5887 5888 5889 5890 5892 5893 5894 5895 5896 5897
5885 5888 5890 5892 5891 5890 5890 5890 5889 5887 5887 5886 5884 5883 5882 5881 5879 5879 5879 5878 5877 5876 5875 5874 5873 5872 5871 5871 5870 5870 5871 5872 5874 5875 5877 5878 5879 5881 5883 5884 5886 5887 5888 5890 5891 5893 5894 5895 5895
5882 5885 5886 5888 5888 5888 5889 5889 5887 5885 5884 5884 5883 5882 5880 5879 5877 5877 5876 5876 5875 5874 5873 5872 5871 5870 5869 5869 5869 5869 5869 5870 5872 5873 5874 5875 5877 5879 5881 5882 5884 5885 5886 5888 5889 5891 5892 5893 5893
5879 5881 5883 5883 5884 5886 5886 5887 5886 5882 5881 5880 5879 5879 5878 5875 5875 5874 5874 5873 5873 5872 5871 5870 5869 5868 5867 5867 5867 5867 5867 5868 5869 5870 5872 5873 5874 5876 5878 5879 5881 5883 5884 5885 5887 5888 5889 5890 5891
5875 5877 5879 5880 5881 5882 5883 5884 5884 5880 5879 5878 5877 5876 5875 5874 5873 5871 5869 5870 5870 5870 5869 5868 5867 5866 5866 5865 5865 5864 5865 5866 5867 5868 5869 5870 5871 5873 5875 5877 5878 5880 5881 5883 5884 5885 5887 5888 5889
5872 5874 5876 5877 5878 5879 5880 5881 5881 5877 5876 5875 5875 5874 5874 5872 5872 5870 5869 5869 5869 5868 5867 5866 5865 5864 5864 5863 5862 5862 5862 5863 5863 5864 5865 5867 5868 5870 5872 5873 5875 5877 5878 5880 5881 5882 5884 5885 5886
5868 5871 5874 5877 5878 5877 5876 5877 5877 5874 5874 5873 5873 5873 5873 5871 5871 5870 5869 5868 5867 5866 5865 5864 5863 5862 5862 5861 5860 5860 5860 5860 5860 5861 5862 5863 5865 5866 5868 5870 5872 5873 5875 5876 5878 5879 5880 5882 5883
5864 5866 5871 5874 5874 5875 5874 5874 5872 5872 5871 5871 5871 5871 5870 5869 5868 5868 5867 5866 5866 5865 5863 5862 5861 5860 5859 5859 5858 5858 5858 5858 5858 5858 5859 5860 5861 5863 5864 5866 5868 5869 5871 5872 5874 5875 5877 5878 5879
5860 5864 5866 5868 5870 5871 5872 5870 5868 5866 5868 5868 5868 5867 5867 5866 5866 5865 5865 5864 5864 5863 5862 5861 5859 5858 5857 5856 5856 5856 5855 5855 5855 5855 5856 5857 5857 5858 5860 5862 5864 5865 5866 5868 5870 5871 5873 5874 5875
5855 5858 5861 5865 5867 5869 5869 5868 5864 5863 5865 5865 5864 5863 5864 5864 5863 5862 5862 5862 5861 5860 5859 5858 5857 5856 5855 5854 5854 5853 5853 5853 5853 5853 5853 5853 5854 5854 5856 5858 5859 5860 5862 5864 5865 5866 5868 5869 5870
5851 5854 5857 5860 5862 5864 5865 5864 5859 5858 5859 5861 5862 5860 5860 5861 5861 5860 5860 5860 5859 5858 5857 5856 5855 5854 5853 5852 5851 5851 5851 5850 5850 5849 5850 5850 5850 5850 5851 5853 5855 5856 5857 5859 5860 5861 5863 5864 5865